(26879) Haines = 1973 VA = 1994 NL2 = 1998 XD80

Discovered at Palomar on 1994-07-09 by C. S. Shoemaker and E. M. Shoemaker.
(26879) Haines = 1994 NL2

Peter Haines (b. 1960), associate professor of geology with the University of Tasmania, has worked in the field of impact geology for a number of years. He discovered the Goyder and Foelsche impact structures in Northern Territory with strong geological, structural and geophysical evidence. [Ref: Minor Planet Circ. 48396]

Orbit

Orbit type: Mars-crosser

Note: WebGL enabled browser required.

epoch2024-03-31.0
epoch JD2460400.5
perihelion date2022-11-04.39228
perihelion JD2459887.89228
argument of perihelion (°)95.14924
ascending node (°)230.91372
inclination (°)21.33114
eccentricity0.3485617
perihelion distance (AU)1.5049162
Tisserand w.r.t. Jupiter3.4
ΔV w.r.t. Earth (km/sec)9.7
semimajor axis (AU)2.3101438
mean anomaly (°)143.88996
mean daily motion (°/day)0.28070190
aphelion distance (AU)3.115
period (years)3.51
P-vector [x]0.77669174
P-vector [y]-0.61685531
P-vector [z]0.12743420
Q-vector [x]0.56305393
Q-vector [y]0.77062015
Q-vector [z]0.29852111
absolute magnitude14.31
phase slope0.15
uncertainty0
referenceMPEC 2024-C145
observations used2029
oppositions22
arc length (days)18365
first opposition used1973
last opposition used2024
residual rms (arc-secs)0.63
perturbers coarse indicatorM-v
perturbers precise indicator003Ek
first observation date used1973-11-01.0
last observation date used2024-02-12.0
computer nameMPCLINUX
JD of orbit computation2456789.228191
perihelion JD uncertainty (days)4.4380E-05
argument of perihelion uncertainty (°)1.7125E-05
ascending node uncertainty (°)1.2307E-05
inclination uncertainty (°)6.8544E-06
eccentricity uncertainty 3.6599E-08
perihelion distance uncertainty (AU)8.3796E-08
Minimum Orbit Intersection Distances (in AU)
for orbit epoch: 2460200.5, reference: E2024-CE5
Mercury1.15716
Venus0.89425
Earth0.66629
Mars0.39379
Jupiter2.6716
Saturn6.40512
Uranus15.6138
Neptune27.4639

Observations

2057 total observations over interval: 1973 11 01.82951 – 2024 02 12.390349
These data are available for download (format description).

Date (UT) J2000 RA J2000 Dec Magn Location Ref
1973 11 01.82951 21 44 20.52 +13 27 33.5 16.6   029 – Hamburg-Bergedorf MPC 3750
1973 11 01.84826 21 44 23.19 +13 27 17.3   029 – Hamburg-Bergedorf MPC 3750
1991 11 10.39236 05 51 31.15 +11 22 32.9   261 – Palomar Mountain-DSS MPS 31544
1991 11 10.43750 05 51 29.05 +11 21 58.8   261 – Palomar Mountain-DSS MPS 31544
1994 07 09.29678 17 46 15.78 +14 58 37.8   675 – Palomar Mountain MPC 25381
1994 07 09.33247 17 46 13.98 +14 59 05.5 16   675 – Palomar Mountain MPC 25381
1994 07 11.19583 17 44 49.98 +15 22 42.3   675 – Palomar Mountain MPC 25381
1994 07 11.23420 17 44 48.16 +15 23 11.7   675 – Palomar Mountain MPC 25381
1994 07 13.25694 17 43 22.90 +15 46 15.2   675 – Palomar Mountain MPC 25381
1998 12 15.30894 04 55 50.96 +05 56 33.3 17.2   704 – Lincoln Laboratory ETS, New Mexico MPS 3623
1998 12 15.32374 04 55 49.95 +05 56 25.6 17.3   704 – Lincoln Laboratory ETS, New Mexico MPS 3623
1998 12 15.33861 04 55 48.86 +05 56 19.6 17.1   704 – Lincoln Laboratory ETS, New Mexico MPS 3623
1998 12 15.35337 04 55 47.93 +05 56 12.8 17.4   704 – Lincoln Laboratory ETS, New Mexico MPS 3623
1998 12 15.36815 04 55 46.80 +05 56 06.9 17.4   704 – Lincoln Laboratory ETS, New Mexico MPS 3623
1998 12 17.23688 04 53 42.83 +05 42 33.6 17.1 R 699 – Lowell Observatory-LONEOS MPS 3830
1998 12 17.25982 04 53 41.24 +05 42 24.7   699 – Lowell Observatory-LONEOS MPS 3830
1998 12 17.28275 04 53 39.67 +05 42 15.7   699 – Lowell Observatory-LONEOS MPS 3830
1998 12 22.10586 04 48 39.29 +05 11 46.8 17.3   704 – Lincoln Laboratory ETS, New Mexico MPS 3623
1998 12 22.12852 04 48 37.91 +05 11 39.0 17.6   704 – Lincoln Laboratory ETS, New Mexico MPS 3623
1998 12 22.15120 04 48 36.39 +05 11 32.5 17.1   704 – Lincoln Laboratory ETS, New Mexico MPS 3623
1998 12 22.17402 04 48 35.06 +05 11 25.1 16.6   704 – Lincoln Laboratory ETS, New Mexico MPS 3623
2000 04 06.12781 09 17 17.28 -11 52 01.4 19.1 R 699 – Lowell Observatory-LONEOS MPS 11776
2000 04 06.14376 09 17 17.04 -11 51 51.5   699 – Lowell Observatory-LONEOS MPS 11776
2000 04 06.15969 09 17 16.91 -11 51 41.1   699 – Lowell Observatory-LONEOS MPS 11776
2000 04 06.17571 09 17 16.82 -11 51 35.0   699 – Lowell Observatory-LONEOS MPS 11776
2001 05 21.05968 17 47 11.32 -06 54 27.2 16.8 V 636 – Essen MPS 30699
2001 05 21.06181 17 47 11.21 -06 54 23.9 16.5 V 636 – Essen MPS 30699
2001 05 21.06696 17 47 11.07 -06 54 16.7 16.3 V 636 – Essen MPS 30699
2001 05 22.31400 17 46 37.38 -06 23 28.7 16.5   704 – Lincoln Laboratory ETS, New Mexico MPS 30699
2001 05 22.32424 17 46 37.07 -06 23 13.4 16.8   704 – Lincoln Laboratory ETS, New Mexico MPS 30699
2001 05 22.33455 17 46 36.74 -06 22 58.2 16.3   704 – Lincoln Laboratory ETS, New Mexico MPS 30699
2001 05 22.34499 17 46 36.39 -06 22 42.7 16.3   704 – Lincoln Laboratory ETS, New Mexico MPS 30699
2001 05 22.35530 17 46 36.11 -06 22 26.9 16.9   704 – Lincoln Laboratory ETS, New Mexico MPS 30699
2001 05 24.99109 17 45 13.84 -05 16 36.5 16.4 V 636 – Essen MPS 31173
2001 05 24.99427 17 45 13.70 -05 16 31.6 16.4 V 636 – Essen MPS 31173
2001 05 25.00561 17 45 13.28 -05 16 14.6 16.8 V 636 – Essen MPS 31173
2001 05 25.00868 17 45 13.19 -05 16 10.0 16.5 V 636 – Essen MPS 31173
2001 05 25.32229 17 45 02.51 -05 08 13.6 16.5   704 – Lincoln Laboratory ETS, New Mexico MPS 31173
2001 05 25.33469 17 45 02.04 -05 07 54.6 16.7   704 – Lincoln Laboratory ETS, New Mexico MPS 31173
2001 05 25.34642 17 45 01.59 -05 07 37.2 16.2   704 – Lincoln Laboratory ETS, New Mexico MPS 31173
2001 05 25.35725 17 45 01.18 -05 07 20.8 16.2   704 – Lincoln Laboratory ETS, New Mexico MPS 31173
2001 05 25.36865 17 45 00.76 -05 07 03.4 17.0   704 – Lincoln Laboratory ETS, New Mexico MPS 31173
2001 06 19.93802 17 22 53.02 +05 19 03.8   127 – Bornheim MPS 32101
2001 06 19.94237 17 22 52.73 +05 19 09.5   127 – Bornheim MPS 32101
2001 06 23.93536 17 18 56.96 +06 40 19.7 15.1 R 628 – Mulheim-Ruhr MPS 31544
2001 06 23.94714 17 18 56.26 +06 40 33.4 15.4 R 628 – Mulheim-Ruhr MPS 31544
2001 06 23.95894 17 18 55.52 +06 40 46.9 15.2 R 628 – Mulheim-Ruhr MPS 31544
2001 06 23.97074 17 18 54.81 +06 41 00.7 15.3 R 628 – Mulheim-Ruhr MPS 31544
2001 06 25.92294 17 17 03.64 +07 17 50.3   127 – Bornheim MPS 32101
2001 06 25.92789 17 17 03.33 +07 17 55.9   127 – Bornheim MPS 32101
2001 06 25.93187 17 17 03.10 +07 18 00.3   127 – Bornheim MPS 32101
2001 06 28.19250 17 14 59.09 +07 58 08.5 15.5 R 688 – Lowell Observatory, Anderson Mesa Station MPS 32101
2001 06 28.19303 17 14 59.05 +07 58 08.9 15.4 R 688 – Lowell Observatory, Anderson Mesa Station MPS 32101
2001 06 28.19355 17 14 59.04 +07 58 09.5 15.4 R 688 – Lowell Observatory, Anderson Mesa Station MPS 32101
2001 06 28.22477 17 14 57.23 +07 58 41.6 15.6 R 688 – Lowell Observatory, Anderson Mesa Station MPS 32101
2001 06 28.22529 17 14 57.20 +07 58 42.1 15.6 R 688 – Lowell Observatory, Anderson Mesa Station MPS 32101
2001 06 28.22582 17 14 57.17 +07 58 42.7 15.6 R 688 – Lowell Observatory, Anderson Mesa Station MPS 32101
2001 06 28.33384 17 14 50.96 +08 00 34.6 14.9   644 – Palomar Mountain/NEAT MPS 31544
2001 06 28.34444 17 14 50.36 +08 00 43.9 15.2   644 – Palomar Mountain/NEAT MPS 31544
2001 06 28.35573 17 14 49.73 +08 00 55.3 15.1   644 – Palomar Mountain/NEAT MPS 31544
2001 06 29.21218 17 14 04.87 +08 15 19.6 15.5 R 688 – Lowell Observatory, Anderson Mesa Station MPS 32101
2001 06 29.21270 17 14 04.85 +08 15 20.1 15.5 R 688 – Lowell Observatory, Anderson Mesa Station MPS 32101
2001 06 29.21325 17 14 04.83 +08 15 20.6 15.5 R 688 – Lowell Observatory, Anderson Mesa Station MPS 32101
2001 07 01.21650 17 12 22.51 +08 47 25.8 15.7 R 688 – Lowell Observatory, Anderson Mesa Station MPS 32101
2001 07 01.21830 17 12 22.41 +08 47 27.4 15.9 R 688 – Lowell Observatory, Anderson Mesa Station MPS 32101
2001 07 01.21971 17 12 22.33 +08 47 28.7 16.0 R 688 – Lowell Observatory, Anderson Mesa Station MPS 32101
2001 07 02.25285 17 11 31.71 +09 03 09.2 15.8 R 688 – Lowell Observatory, Anderson Mesa Station MPS 32101
2001 07 02.25380 17 11 31.67 +09 03 10.0 15.9 R 688 – Lowell Observatory, Anderson Mesa Station MPS 32101
2001 07 15.89617 17 03 30.63 +11 33 40.5 15.2 R 628 – Mulheim-Ruhr MPS 32101
2001 07 15.90350 17 03 30.45 +11 33 43.6 15.1 R 628 – Mulheim-Ruhr MPS 32101
2001 07 15.91083 17 03 30.30 +11 33 46.8 15.2 R 628 – Mulheim-Ruhr MPS 32101
2001 07 15.91819 17 03 30.13 +11 33 50.0 15.3 R 628 – Mulheim-Ruhr MPS 32101
2001 07 15.93653 17 03 29.69 +11 33 57.9 15.3 R 628 – Mulheim-Ruhr MPS 32101
2001 07 25.89041 17 02 09.65 +12 21 35.7 15.7 R 628 – Mulheim-Ruhr MPS 32101
2001 07 25.90142 17 02 09.66 +12 21 37.2 15.7 R 628 – Mulheim-Ruhr MPS 32101
2001 07 25.91242 17 02 09.69 +12 21 38.8 15.8 R 628 – Mulheim-Ruhr MPS 32101
2001 07 25.92343 17 02 09.71 +12 21 40.4 15.8 R 628 – Mulheim-Ruhr MPS 32101
2001 07 25.93441 17 02 09.74 +12 21 42.0 16.0 R 628 – Mulheim-Ruhr MPS 32101
2001 07 31.88512 17 03 25.35 +12 29 07.7 15.7 R 628 – Mulheim-Ruhr MPS 33067
2001 07 31.89613 17 03 25.55 +12 29 07.6 15.7 R 628 – Mulheim-Ruhr MPS 33067
2001 07 31.90713 17 03 25.75 +12 29 07.8 15.8 R 628 – Mulheim-Ruhr MPS 33067
2001 07 31.91816 17 03 25.94 +12 29 07.8 15.7 R 628 – Mulheim-Ruhr MPS 33067
2001 07 31.92919 17 03 26.15 +12 29 07.7 15.7 R 628 – Mulheim-Ruhr MPS 33067
2001 08 03.42303 17 04 25.11 +12 28 20.5 16.6   608 – Haleakala-AMOS MPS 33067
2001 08 03.43358 17 04 25.36 +12 28 19.9 16.8   608 – Haleakala-AMOS MPS 33067
2001 08 03.44401 17 04 25.64 +12 28 19.2 16.8   608 – Haleakala-AMOS MPS 33067
2001 08 05.88292 17 05 39.47 +12 25 20.5 15.7 R 628 – Mulheim-Ruhr MPS 33067
2001 08 05.89471 17 05 39.85 +12 25 19.5 16.0 R 628 – Mulheim-Ruhr MPS 33067
2001 08 05.90572 17 05 40.18 +12 25 18.5 15.9 R 628 – Mulheim-Ruhr MPS 33067
2001 08 05.91675 17 05 40.55 +12 25 17.2 16.0 R 628 – Mulheim-Ruhr MPS 33067
